Location: Cedar Ridge
(38.0658°N, 120.2769°W)
Time: 00:46:39
(UTC+00:00)

SME Rocket - Visible Passes

Search period start: 06 December 2024 00:00
Search period end: 16 December 2024 00:00
Orbit: 550 x 2639 km, 99.9° (Epoch: 05 December)

Date Brightness Start Highest point End Pass type
(mag) Time Alt. Az. Time Alt. Az. Time Alt. Az.
06 Dec 6.7 10:12:56 10° NNE 10:26:20 45° E 10:39:02 10° SSE visible
06 Dec 5.9 12:08:24 10° N 12:22:09 66° WNW 12:35:47 10° SW visible
06 Dec 6.8 14:06:13 10° N 14:15:19 22° NW 14:24:51 10° W visible
07 Dec 7.0 09:51:34 10° NNE 10:04:11 35° E 10:16:02 10° SSE visible
07 Dec 5.9 11:46:24 10° NNE 12:00:35 79° WNW 12:14:16 10° SSW visible
07 Dec 6.6 13:43:45 10° N 13:54:10 28° NW 14:04:56 10° W visible
08 Dec 7.2 09:30:28 10° NE 09:41:54 27° E 09:52:36 10° SE visible
08 Dec 5.9 11:24:29 10° NNE 11:38:55 88° ESE 11:52:30 10° SSW visible
08 Dec 6.5 13:21:24 10° N 13:32:56 34° NW 13:44:37 10° WSW visible
09 Dec 7.5 09:09:48 10° NE 09:19:29 20° E 09:28:33 10° SE visible
09 Dec 6.1 11:02:39 10° NNE 11:17:09 74° ESE 11:30:28 10° S visible
09 Dec 6.3 12:59:10 10° N 13:11:38 41° WNW 13:23:59 10° WSW visible
10 Dec 7.7 08:50:02 10° NE 08:56:52 15° E 09:03:23 10° ESE visible
10 Dec 6.3 10:40:55 10° NNE 10:55:15 61° E 11:08:11 10° S visible
10 Dec 6.1 12:37:01 10° N 12:50:17 50° WNW 13:03:02 10° SW visible
10 Dec 7.0 14:35:36 10° N 14:42:35 16° NW 14:49:43 10° WNW visible
11 Dec 6.5 10:19:19 10° NNE 10:33:13 49° E 10:45:36 10° SSE visible
11 Dec 6.0 12:14:56 10° N 12:28:50 60° WNW 12:41:48 10° SW visible
11 Dec 6.9 14:12:51 10° N 14:21:33 20° NW 14:30:22 10° W visible
12 Dec 6.8 09:57:52 10° NNE 10:11:03 39° E 10:22:43 10° SSE visible
12 Dec 5.9 11:52:57 10° N 12:07:18 72° WNW 12:20:19 10° SSW visible
12 Dec 6.7 13:50:21 10° N 14:00:28 25° NW 14:10:31 10° W visible
13 Dec 7.1 09:36:40 10° NNE 09:48:44 30° E 09:59:26 10° SE visible
13 Dec 5.8 11:31:01 10° NNE 11:45:40 85° WNW 11:58:34 10° SSW visible
13 Dec 6.6 13:28:01 10° N 13:39:18 31° NW 13:50:15 10° WSW visible
14 Dec 7.3 09:15:48 10° NE 09:26:16 23° E 09:35:38 10° SE visible
14 Dec 5.9 11:09:09 10° NNE 11:23:54 80° ESE 11:36:34 10° SSW visible
14 Dec 6.4 13:05:46 10° N 13:18:03 37° NW 13:29:39 10° WSW visible
15 Dec 7.6 08:55:36 10° NE 09:03:38 17° E 09:11:00 10° ESE visible
15 Dec 6.1 10:47:24 10° NNE 11:02:00 67° E 11:14:20 10° S visible
15 Dec 6.2 12:43:37 10° N 12:56:44 45° WNW 13:08:43 10° SW visible
15 Dec 7.1 14:42:25 10° NNW 14:48:36 14° NW 14:54:46 10° WNW visible
